Location: Marsån
(66.4167°N, 22.2833°E)
Time: 08:15:56
(UTC+00:00)

Cosmos 1603 - Pass Details

Date: 24 February 2024
Orbit: 830 x 859 km, 71.0° (Epoch: 20 April)

Event Time Altitude Azimuth Distance (km) Brightness Sun altitude
Rises 17:34:49 0° 252° (WSW) 3,381 8.1 -13.7°
Reaches altitude 10° 17:37:17 10° 255° (WSW) 2,447 7.2 -14.0°
Maximum altitude 17:42:51 66° 338° (NNW) 913 4.0 -14.5°
Enters shadow 17:47:50 13° 59° (ENE) 2,223 5.5 -15.0°
